Weather History for Limon, CO

Change the Weather History Date:

Tuesday, April 29, 2014

  Actual Average Record
Temperature  
Mean Temperature 38 °F -  
Max Temperature 46 °F - 82 °F (2007)
Min Temperature 29 °F - 19 °F (1998)
Degree Days  
Heating Degree Days 27    
Month to date heating degree days 567  
Cooling Degree Days 0    
Month to date cooling degree days 0  
Moisture  
Dew Point 28 °F    
Average Humidity 73    
Maximum Humidity 92    
Minimum Humidity 53    
Precipitation  
Precipitation T in - 0.38 in (1999)
Month to date precipitation 1.19  
Year to date precipitation 2.63  
Sea Level Pressure  
Sea Level Pressure 30.07 in    
Wind  
Wind Speed 36 mph (NNW)    
Max Wind Speed 56 mph    
Max Gust Speed 69 mph    
Visibility 8 miles    
Events Rain , Snow    
T = Trace of Precipitation, MM = Missing Value Source: NWS Daily Summary

Daily Weather History Graph

Daily Weather History Graph

Search for Another Location

Airport:

Trip Planner

Search our weather history database for the weather conditions in past years. The results will help you decide how hot, cold, wet, or windy it might be!

Date:

Astronomy

Apr. 29, 2014 Rise Set
Actual Time 5:58 AM MDT 7:46 PM MDT
Civil Twilight 5:29 AM MDT 8:14 PM MDT
Nautical Twilight 4:54 AM MDT 8:49 PM MDT
Astronomical Twilight 4:17 AM MDT 9:27 PM MDT
Moon 6:18 AM MDT (4/29) 8:28 PM MDT (4/29)
Length of Visible Light 14h 45m
Length of Day
13h 47m
New Moon, 0% of the Moon is Illuminated
Apr 29
New Moon
May 6
First Quarter
May 14
Full
May 21
Last Quarter
May 28
New

Hourly Weather History & Observations

Time (MDT) Temp. Windchill Dew Point Humidity Pressure Visibility Wind Dir Wind Speed Gust Speed Precip Events Conditions
12:55 AM 37.0 °F 24.5 °F 25.0 °F 62% 29.88 in 10.0 mi NNW 29.9 mph 38.0 mph N/A   Overcast
1:55 AM 35.1 °F 21.6 °F 25.0 °F 67% 29.87 in 10.0 mi NW 31.1 mph 39.1 mph N/A   Clear
2:55 AM 36.0 °F 22.0 °F 25.0 °F 64% 29.87 in 10.0 mi NNW 35.7 mph 44.9 mph N/A   Scattered Clouds
3:55 AM 37.0 °F 23.3 °F 26.1 °F 65% 29.86 in 10.0 mi NNW 36.8 mph 48.3 mph N/A   Mostly Cloudy
4:55 AM 35.1 °F 19.9 °F 27.0 °F 72% 29.91 in 10.0 mi NNW 41.4 mph 54.1 mph 0.00 in   Partly Cloudy
5:55 AM 36.0 °F 20.7 °F 24.1 °F 62% 29.91 in 10.0 mi NNW 44.9 mph 61.0 mph N/A   Clear
6:55 AM 36.0 °F 21.0 °F 25.0 °F 64% 29.94 in 10.0 mi NNW 42.6 mph 58.7 mph N/A   Partly Cloudy
7:55 AM 37.9 °F 23.3 °F 26.1 °F 62% 29.98 in 10.0 mi NNW 46.0 mph 54.1 mph N/A   Scattered Clouds
8:55 AM 39.9 °F 26.0 °F 26.1 °F 58% 29.99 in 10.0 mi NNW 47.2 mph 59.8 mph N/A   Mostly Cloudy
9:55 AM 42.1 °F 29.3 °F 26.1 °F 53% 30.00 in 10.0 mi NNW 44.9 mph 62.1 mph N/A   Overcast
10:55 AM 41.0 °F 27.6 °F 26.1 °F 55% 30.02 in 10.0 mi NNW 46.0 mph 57.5 mph 0.00 in Rain Light Rain
11:55 AM 41.0 °F 27.7 °F 26.1 °F 55% 30.04 in 8.0 mi North 44.9 mph 59.8 mph 0.00 in Rain Light Rain
12:55 PM 43.0 °F 30.8 °F 27.0 °F 53% 30.03 in 10.0 mi North 42.6 mph 62.1 mph 0.00 in   Overcast
1:55 PM 42.1 °F 29.1 °F 26.1 °F 53% 30.04 in 9.0 mi North 46.0 mph 64.4 mph 0.00 in Rain Light Rain
3:55 PM 45.0 °F 33.1 °F 28.0 °F 52% 30.03 in 10.0 mi NNW 47.2 mph 56.4 mph N/A   Mostly Cloudy
4:55 PM 42.1 °F 30.1 °F 30.0 °F 62% 30.07 in 10.0 mi NNW 38.0 mph 54.1 mph N/A   Overcast
5:55 PM 39.9 °F 27.6 °F 30.9 °F 70% 30.09 in 10.0 mi North 34.5 mph 46.0 mph N/A   Overcast
6:35 PM 36.0 °F 21.0 °F 32.0 °F 86% 30.13 in 9.0 mi North 42.6 mph 51.8 mph 0.00 in Snow Light Snow
6:44 PM 36.0 °F 22.6 °F 30.9 °F 82% 30.13 in 9.0 mi North 32.2 mph 50.6 mph 0.00 in Snow Light Snow
6:55 PM 37.0 °F 23.9 °F 32.0 °F 82% 30.13 in 10.0 mi North 33.4 mph 43.7 mph 0.00 in   Overcast
7:55 PM 35.1 °F 21.4 °F 30.0 °F 82% 30.15 in 10.0 mi North 32.2 mph 39.1 mph 0.00 in   Overcast
8:55 PM 34.0 °F 19.9 °F 30.0 °F 85% 30.17 in 10.0 mi North 32.2 mph 43.7 mph 0.00 in   Overcast
9:49 PM 33.8 °F 18.8 °F 30.2 °F 87% 30.19 in 2.5 mi North 36.8 mph 49.5 mph 0.00 in Snow Light Snow
9:55 PM 32.0 °F 17.4 °F 30.0 °F 92% 30.19 in 1.8 mi NNW 31.1 mph 49.5 mph 0.00 in Snow Light Snow
10:08 PM 32.0 °F 17.2 °F 30.0 °F 92% 30.19 in 3.0 mi NNW 32.2 mph 46.0 mph 0.00 in Snow Light Snow
10:31 PM 32.0 °F 17.9 °F 30.0 °F 92% 30.20 in 3.0 mi NNW 28.8 mph 38.0 mph 0.00 in Snow Light Snow
10:39 PM 32.0 °F 18.4 °F 30.0 °F 92% 30.20 in 5.0 mi North 26.5 mph 39.1 mph 0.00 in Snow Light Snow
11:12 PM 30.0 °F 14.7 °F 28.0 °F 92% 30.21 in 2.5 mi North 31.1 mph 36.8 mph 0.00 in Snow Light Snow
11:14 PM 30.0 °F 14.9 °F 28.0 °F 92% 30.22 in 1.8 mi North 29.9 mph 38.0 mph 0.00 in Snow Light Snow
11:32 PM 30.0 °F 14.7 °F 28.0 °F 92% 30.23 in 2.0 mi North 31.1 mph 41.4 mph 0.00 in Snow Light Snow
11:35 PM 30.0 °F 15.7 °F 28.0 °F 92% 30.23 in 3.0 mi North 26.5 mph 41.4 mph 0.00 in Snow Light Snow
11:55 PM 30.0 °F 15.4 °F 27.0 °F 88% 30.24 in 9.0 mi North 27.6 mph 38.0 mph 0.00 in   Overcast